Location: Turtle Rock Observatory
(36.6913°N, 81.9708°W)
Time: 00:46:38
(UTC-04:00)

Daily predictions for brighter satellites

Satellite Brightness Start Highest point End
(mag) Time Altitude Azimuth Time Altitude Azimuth Time Altitude Azimuth
Lacrosse 5 4.2 00:07:53 10° NNW 00:09:43 20° NNW 00:09:43 20° NNW
Cosmos 1943 Rocket 4.2 00:34:08 10° NNW 00:36:08 23° NNW 00:36:08 23° NNW
ADEOS Rocket 4.5 01:18:15 10° NNE 01:21:59 35° NNE 01:21:59 35° NNE
CZ-2D R/B 4.1 02:44:35 10° NE 02:47:20 24° ENE 02:47:20 24° ENE
SL-16 R/B 3.6 02:51:48 39° ENE 02:51:48 39° ENE 02:57:27 10° N
Cosmos 1980 Rocket 4.2 02:52:12 10° N 02:56:39 23° ENE 02:58:11 21° E
Cosmos 1697 Rocket 4.1 02:53:57 10° N 02:57:47 35° NNE 02:57:47 35° NNE
Cosmos 2082 Rocket 3.4 03:06:40 37° NNE 03:06:40 37° NNE 03:10:01 10° NNE
ATLAS 3B R/B 4.3 03:16:15 24° ESE 03:16:56 24° ESE 03:22:21 10° ENE
Cosmos 1634 Rocket 4.3 03:24:53 61° NE 03:24:53 61° NE 03:30:11 10° N
Resurs 1-4 Rocket 3.2 03:20:03 10° NNE 03:23:33 42° NNE 03:23:33 42° NNE
Cosmos 2279 Rocket 4.5 03:36:56 52° ESE 03:37:20 52° E 03:43:24 10° NNE
Cosmos 1833 Rocket 3.8 03:41:36 35° NNW 03:41:36 35° NNW 03:45:27 10° N
USA 215 4.3 03:39:18 10° ENE 03:44:58 31° SE 03:45:35 30° SE
Cosmos 2026 Rocket 4.0 03:42:55 10° N 03:49:19 79° E 03:49:30 78° ESE
Cosmos 1898 Rocket 4.4 03:46:26 10° N 03:51:28 46° ENE 03:52:29 41° E
Cosmos 724 4.1 04:05:15 85° E 04:05:15 85° E 04:11:00 10° NNE
Cosmos 2360 4.1 04:01:30 10° NNW 04:07:09 87° NNE 04:07:09 87° NNE
Timation 2 Rocket 4.1 04:07:41 55° SSE 04:08:33 61° ESE 04:14:26 10° NNE
Lacrosse 5 rocket 3.7 04:11:25 17° NNW 04:11:25 17° NNW 04:13:34 10° N
Cosmos 468 Rocket 4.2 04:12:08 65° NNW 04:12:08 65° NNW 04:16:56 10° NNE
ARIANE 5 R/B 2.7 04:09:02 10° N 04:13:42 61° NW 04:13:42 61° NW
Spot 4 Rocket 4.3 04:09:54 10° N 04:14:23 57° NW 04:14:23 57° NW
USA 238 DEB 3.7 04:17:40 54° S 04:19:19 76° ESE 04:26:15 10° NE
USA 238 3.7 04:17:45 54° S 04:19:25 75° ESE 04:26:21 10° NE
Cosmos 1814 Rocket 3.8 04:20:50 80° SSE 04:21:01 83° ESE 04:26:13 10° NNE
Cosmos 1655 Rocket 3.9 04:19:25 10° N 04:25:50 81° W 04:27:55 46° S
Helios 1A Rocket 3.7 04:24:17 10° N 04:27:22 44° NNW 04:27:22 44° NNW
CZ-2D R/B 3.2 04:24:38 10° N 04:28:39 29° NW 04:28:39 29° NW
CZ-2D R/B 3.7 04:25:28 10° N 04:28:56 61° N 04:28:56 61° N
Meteor 1-21 4.1 04:33:26 51° S 04:34:59 90° ENE 04:40:38 10° N
SL-16 R/B 3.6 04:36:53 27° WNW 04:36:53 27° WNW 04:40:45 10° NW
Cosmos 1726 Rocket 4.1 04:32:21 10° NNW 04:35:31 44° NW 04:35:31 44° NW
Cosmos 2298 Rocket 4.2 04:32:27 10° NNW 04:37:47 73° ENE 04:43:04 10° SSE
Cosmos 1980 Rocket 2.6 04:35:30 10° NW 04:39:51 41° WNW 04:39:51 41° WNW
Cosmos 2082 Rocket 4.2 04:48:31 13° WNW 04:49:10 13° NW 04:51:52 10° NNW
Cosmos 841 Rocket 3.4 04:48:23 51° SW 04:49:37 73° WNW 04:54:49 10° NNE
ADEOS II 2.0 04:44:50 10° NNE 04:50:07 89° WNW 04:52:21 36° SSW
ADEOS 3.8 04:47:15 10° N 04:52:17 50° WNW 04:53:17 43° WSW
SL-16 R/B 2.4 04:48:21 10° NNW 04:54:01 72° ENE 04:59:40 10° SSE
UNKNOWN OBJECT B 3.8 04:51:01 10° N 04:53:49 32° NW 04:53:49 32° NW
Cosmos 1602 Rocket 3.7 04:53:47 31° S 04:55:45 70° E 05:00:03 10° NNE
NOSS 3-2 (C) 3.9 04:53:13 24° S 04:56:36 56° ESE 05:02:47 10° NE
Cosmos 2058 Rocket 3.2 04:53:38 10° NNW 04:57:55 51° W 04:58:13 50° WSW
Cosmos 1470 4.0 04:57:32 10° N 05:01:21 43° E 05:05:07 10° SSE
Cosmos 2228 3.5 04:57:51 10° NNW 05:01:27 39° WNW 05:01:27 39° WNW
Resurs 1-4 Rocket 4.0 05:01:56 10° NNW 05:04:29 14° WNW 05:04:38 14° WNW
Cosmos 540 Rocket 3.4 05:02:53 29° SSW 05:05:34 87° ESE 05:10:45 10° NNE
ATLAS 3B R/B 2.9 05:03:31 31° SW 05:07:09 63° NW 05:14:04 10° NNE
Cosmos 1626 Rocket 3.4 05:06:34 36° SSW 05:08:12 72° W 05:12:31 10° N
Cosmos 2322 Rocket 2.1 05:03:52 10° NNW 05:09:31 88° WSW 05:15:08 10° SSE
NOSS 3-2 (A) 3.3 05:10:13 29° SW 05:13:24 78° WNW 05:19:50 10° NNE
Cosmos 1833 4.4 05:10:34 17° SSW 05:15:04 74° ESE 05:20:51 10° NNE
Cosmos 292 Rocket 4.0 05:13:39 33° SW 05:15:26 51° WNW 05:20:08 10° N
Cosmos 1707 3.1 05:13:05 15° S 05:16:09 64° E 05:20:00 10° NNE
Cosmos 1378 3.0 05:14:37 28° S 05:16:31 87° W 05:20:17 10° N
SJ 16-02 2.1 05:12:52 10° N 05:17:11 54° ENE 05:21:31 10° SSE
BREEZE-M DEB (TANK) 4.5 05:18:58 15° SSW 05:21:47 29° SE 05:24:57 10° ENE
ATLAS CENTAUR R/B 3.9 05:19:00 10° N 05:22:49 27° NE 05:26:47 10° ESE
CENTAUR R/B 3.6 05:22:37 10° S 05:27:55 39° ESE 05:33:52 10° NE
USA 215 3.4 05:21:43 10° NE 05:28:10 66° NW 05:32:57 19° WSW
H-II Stage 2 3.9 05:30:22 19° SW 05:33:46 45° SSE 05:56:34 10° E
Meteor 1-31 Rocket 4.1 05:31:22 10° NNE 05:35:00 39° E 05:38:36 10° SSE
CZ-4B R/B 4.3 05:29:53 10° NNE 05:35:13 46° E 05:40:23 10° S
Cosmos 1953 2.5 05:31:54 10° NNW 05:35:52 52° W 05:39:47 10° S
PSLV R/B 3.6 05:33:02 10° NNE 05:36:53 88° W 05:40:37 10° SSW
CZ-3C R/B 3.4 05:35:33 10° S 05:37:56 13° SE 05:42:07 10° ESE
Cosmos 44 3.8 05:33:22 10° NW 05:38:21 43° WSW 05:43:24 10° S
SEDSat Delta rocket 4.3 05:33:53 19° WSW 05:38:28 50° S 05:45:01 10° ESE
Nadezhda 2 Rocket 4.5 05:36:24 10° N 05:42:40 72° W 05:49:01 10° S
Cosmos 1125 Rocket 3.5 05:41:04 10° NNW 05:46:24 88° WSW 05:51:40 10° SSE
Meteor 1-28 Rocket 3.9 05:45:18 10° SSE 05:48:58 57° ENE 05:52:40 10° N
Aureole 2 Rocket 2.4 05:45:26 10° NNW 05:49:12 83° WSW 05:52:41 10° SSE
PSLV R/B 3.0 05:49:55 19° W 05:51:54 71° NNW 05:54:54 10° ENE
Cosmos 2322 4.3 05:46:14 10° NNW 05:51:56 64° ENE 05:57:35 10° SSE
Meteor PRIRODA 3.9 05:50:41 10° NNE 05:54:23 73° ESE 05:58:04 10° S
CZ-4B R/B 4.1 05:50:57 10° NNE 05:54:47 70° ESE 05:58:46 10° S
CZ-4B DEB 4.3 05:50:59 10° NNE 05:56:34 87° ESE 06:02:05 10° SSW
Okean O Rocket 1.6 05:53:06 10° NNE 05:57:28 89° WNW 06:01:48 10° SSW
ERBS 2.5 05:55:23 15° WSW 05:58:02 55° NW 06:01:23 10° NNE
Cosmos 1825 Rocket 3.5 05:53:59 10° SSW 05:58:15 66° W 06:02:33 10° N
BREEZE-M DEB 4.0 05:59:27 13° SW 06:01:20 51° SE 06:03:57 10° ENE
CRYOSAT 2 4.3 05:57:39 10° S 06:02:26 64° W 06:07:16 10° NNW
Cosmos 1417 Rocket 4.5 05:59:24 10° SSW 06:05:29 67° W 06:11:40 10° N
Cosmos 44 Rocket 4.0 06:02:43 10° NW 06:07:20 34° WSW 06:11:57 10° S
Cosmos 372 Rocket 4.2 06:05:13 10° NNW 06:10:12 47° WSW 06:15:07 10° S
Meteor 2-5 Rocket 3.7 06:04:45 10° SSW 06:10:13 67° W 06:15:48 10° N
Cosmos 192 4.4 06:11:10 10° SSW 06:16:04 86° ESE 06:20:59 10° NNE
Delta 2 Rocket 4.2 06:11:58 10° WSW 06:17:40 69° SSE 06:22:59 10° E
Cosmos 1745 Rocket 4.0 06:16:02 10° N 06:22:16 84° W 06:28:31 10° S
Cosmos 2360 Rocket 2.4 06:16:57 10° NNW 06:22:21 50° WSW 06:27:44 10° S
S3M 4.0 06:16:35 10° SSW 06:22:38 63° W 06:28:42 10° N
